Location: Cudham
(51.3000°N, 0.0667°E)
Time: 19:34:49
(UTC+00:00)

Cosmos 405 Rocket - Pass Details

Date: 19 May 2025
Orbit: 413 x 447 km, 81.2° (Epoch: 21 June)

Event Time Altitude Azimuth Distance (km) Brightness Sun altitude
Rises 23:11:43 0° 340° (NNW) 2,462 7.8 -18.0°
Reaches altitude 10° 23:13:56 10° 330° (NNW) 1,579 6.2 -18.1°
Maximum altitude 23:17:02 32° 266° (W) 779 3.6 -18.2°
Enters shadow 23:17:46 29° 239° (WSW) 841 3.5 -18.2°
